RH
53 50 47 45 44 43 43 42 40 40 40 37 34 33 32 31 31 30 28 26 24 21 16 11 9 8 7 8 11 12 14 14 15 15 15 15 16 18 17 18 31 39 31 44 72 80 83
52 48 47 47 46 45 44 44 44 43 40 37 35 34 34 33 32 30 27 24 21 14 10 7 5 5 6 11 12 12 14 14 14 14 15 17 18 20 23 22 34 71 78 87 97 94 93
54 50 47 50 48 46 47 47 45 43 41 39 38 37 35 33 31 28 24 20 12 8 5 4 4 4 7 11 13 12 11 12 8 5 4 6 12 20 31 34 44 65 88 91 96 94 91
58 52 51 51 48 48 48 48 48 45 42 42 40 36 34 33 31 27 20 12 7 5 4 3 4 7 10 10 11 10 7 3 2 2 2 3 7 17 47 81 77 85 95 95 100 95 97
56 57 55 54 50 51 49 50 50 46 45 44 42 38 36 35 30 24 14 7 5 3 4 4 8 8 11 10 10 4 3 2 2 2 2 7 11 39 71 60 65 87 71 68 57 58 54
42 57 57 56 53 53 52 52 52 50 47 45 44 39 38 34 26 18 8 5 3 4 4 6 9 10 9 6 4 3 2 2 2 2 6 5 8 24 43 24 30 41 45 46 52 52 56
36 55 59 57 57 57 55 56 55 53 50 47 43 40 38 32 23 13 6 3 4 5 5 7 11 10 6 4 5 3 2 2 2 2 3 6 15 21 39 41 43 44 44 44 40 53 51
42 51 64 62 60 61 61 61 56 54 53 52 48 43 39 32 22 9 5 2 1 2 4 12 12 8 5 2 6 3 2 2 2 3 8 10 14 35 50 50 48 44 49 49 44 40 38
52 52 67 68 66 65 66 62 55 52 54 54 51 45 40 29 19 8 4 2 1 1 9 15 13 10 6 5 7 3 3 2 2 4 4 6 26 36 36 28 22 25 50 42 47 46 38
69 55 59 72 71 72 70 65 59 54 54 55 52 45 39 26 12 8 4 1 1 5 19 18 12 12 5 5 9 5 2 3 5 8 6 8 14 19 22 19 27 20 30 34 39 44 48
82 70 62 77 77 79 74 69 63 56 56 57 53 46 36 24 12 4 4 1 1 12 28 20 12 9 6 6 6 6 4 7 8 12 10 12 17 18 14 13 53 50 58 52 44 38 55
90 83 61 70 83 86 82 74 68 61 59 57 57 47 33 15 10 6 2 1 3 21 33 17 10 7 8 6 5 4 3 6 11 10 10 16 20 29 25 16 37 30 38 29 39 53 81
98 96 84 78 89 92 86 80 75 66 65 64 59 47 27 17 8 4 1 1 8 14 12 16 7 4 6 8 10 5 3 6 11 16 11 9 21 18 25 33 16 20 62 78 70 69 72
99 96 90 88 99 99 88 84 83 72 72 70 62 50 29 13 5 3 1 2 4 8 4 6 2 4 9 8 9 5 10 21 27 34 62 41 24 14 36 52 72 84 91 97 99 96 78
100 99 99 81 97 100 94 84 90 78 78 74 67 44 26 11 5 2 1 1 2 3 2 1 3 9 10 9 4 5 13 32 38 49 36 48 32 19 41 50 76 72 88 94 97 86 96
98 99 99 98 94 99 100 82 87 87 83 80 70 45 22 11 6 2 1 1 2 1 1 1 2 4 6 7 4 4 24 36 52 58 30 36 37 28 29 51 76 75 79 65 76 99 94
100 99 100 99 85 98 100 97 88 95 90 86 76 41 24 9 4 3 2 1 1 1 1 2 2 2 6 6 3 4 22 26 33 19 13 33 48 33 44 53 68 78 84 67 74 86 98
100 100 99 100 92 95 99 99 99 98 97 90 83 36 18 10 6 3 1 1 1 1 1 2 3 3 5 5 3 4 11 12 15 10 17 40 45 76 66 67 87 92 90 76 84 81 93
100 100 99 100 99 100 100 99 100 99 99 98 83 56 21 5 4 3 1 1 2 2 2 2 2 3 6 4 5 7 8 14 11 8 25 31 63 66 63 77 88 94 97 78 95 100 96
100 100 99 100 100 99 99 99 99 99 100 100 96 62 25 6 3 2 1 1 2 2 2 2 3 3 4 4 3 5 6 10 6 10 25 42 55 60 65 64 82 85 43 90 97 87 91
100 99 100 100 100 98 99 99 99 100 99 100 98 75 14 10 5 2 1 1 2 2 2 3 3 3 4 3 4 5 7 10 8 20 26 24 16 15 17 30 24 21 76 91 86 33 35
100 99 100 100 100 99 99 98 100 99 99 99 98 81 10 3 2 1 1 2 2 2 2 3 3 4 4 4 4 4 5 7 14 22 12 6 8 8 7 14 48 56 70 77 34 16 18
100 100 100 100 99 99 99 99 100 99 99 98 98 76 12 3 2 2 1 2 2 2 3 3 3 4 4 4 5 5 6 11 15 14 8 9 10 8 22 46 67 62 45 27 19 22 16
100 99 99 100 100 99 99 99 99 98 99 98 98 53 7 2 2 2 2 2 2 2 3 4 4 4 4 5 6 6 11 17 23 16 9 11 13 12 47 69 61 45 47 21 22 22 25
98 100 100 100 100 99 100 98 98 99 98 98 95 30 14 2 2 2 2 2 2 3 3 4 4 5 6 6 7 10 20 29 26 21 11 12 15 18 56 78 22 20 33 22 27 24 26
61 83 98 99 99 99 99 98 98 98 98 98 61 24 27 10 13 2 2 2 2 3 4 4 5 5 6 7 9 10 11 15 12 12 13 14 17 18 36 37 43 29 24 23 28 22 24
91 90 84 99 98 99 99 99 99 98 97 83 35 55 15 56 3 2 2 3 3 3 4 4 5 6 7 9 9 9 10 13 10 11 14 16 18 22 24 24 19 16 20 23 30 20 25
99 100 99 98 99 99 98 98 98 98 97 63 88 20 78 17 25 3 3 3 3 4 4 5 6 7 8 11 15 10 10 14 15 12 12 14 17 21 27 29 28 16 19 22 21 21 24
99 98 98 99 98 98 98 98 98 97 93 88 30 89 38 36 5 3 4 3 4 4 6 6 7 7 9 11 12 13 11 13 12 13 13 16 16 18 18 17 17 19 20 21 21 23 27
Wind_Speed
9 7 6 6 6 6 7 8 9 11 13 14 14 15 15 16 16 17 17 17 16 14 14 12 12 13 12 9 9 16 15 12 12 11 13 15 16 17 19 20 21 25 27 29 28 27 27
10 8 7 7 7 7 8 9 9 11 13 14 16 16 17 18 18 19 19 18 17 16 15 15 14 13 11 9 13 11 9 9 10 9 7 7 8 10 14 17 20 19 16 17 22 25 26
8 8 7 8 8 7 8 10 11 12 13 14 16 18 18 18 18 19 20 19 19 18 17 16 13 14 10 7 7 12 8 10 10 11 9 7 5 7 9 9 15 13 15 15 23 23 21
7 7 8 8 8 7 8 9 11 13 13 15 17 18 18 19 20 19 19 19 19 18 18 13 14 9 6 8 8 15 15 17 14 11 10 8 7 8 9 11 13 14 14 8 10 8 12
8 7 8 8 7 8 9 10 12 13 15 15 17 18 20 20 20 19 18 19 18 19 15 13 11 8 6 10 8 8 11 11 11 10 9 10 11 7 8 10 9 7 9 16 19 22 24
9 8 9 8 7 9 10 11 13 14 16 17 17 18 20 21 19 20 19 18 17 19 12 11 6 1 8 8 11 17 16 14 14 11 5 6 7 8 11 11 5 12 17 19 17 19 22
12 10 9 10 8 9 10 11 11 14 16 18 18 18 20 20 19 19 18 17 16 10 15 6 5 3 9 15 15 12 18 15 18 12 9 4 6 10 14 15 12 13 16 16 18 10 21
13 12 10 10 10 9 10 10 11 14 17 17 19 20 20 20 19 17 16 15 12 11 10 6 4 9 13 16 11 19 24 24 21 18 13 8 14 12 9 11 12 13 13 14 11 18 17
15 13 12 10 11 11 11 11 12 15 17 18 19 20 20 19 19 17 15 15 15 11 6 1 3 9 20 19 17 24 24 22 20 16 14 12 9 8 11 15 19 16 14 19 22 25 27
20 17 16 14 14 11 12 12 14 15 17 18 19 19 20 19 17 16 14 13 13 8 5 2 6 9 16 15 13 21 22 21 15 16 10 8 8 8 10 12 17 20 15 19 22 23 18
20 19 18 16 14 12 11 13 15 16 18 19 20 20 20 18 17 15 14 13 12 7 1 3 6 9 14 10 13 16 20 15 13 13 14 6 5 10 18 19 13 17 14 18 21 23 26
21 23 21 19 16 14 13 14 15 16 19 21 20 20 19 17 16 15 13 12 10 3 4 4 5 8 10 11 13 14 17 15 11 10 16 6 7 5 17 18 12 18 19 21 12 16 3
25 25 25 20 19 18 17 16 17 18 19 22 21 19 18 17 15 14 12 10 4 4 4 4 6 8 9 10 13 16 16 14 14 9 17 7 6 16 12 19 17 18 18 7 5 2 4
27 29 25 21 21 18 19 18 23 23 20 22 22 19 18 17 14 12 10 9 6 7 5 8 7 8 4 9 8 12 12 12 15 16 7 10 5 18 12 18 17 7 9 4 5 2 7
25 28 28 27 26 20 23 25 22 19 18 23 22 19 18 16 14 12 10 6 6 6 6 5 6 5 3 6 5 7 8 8 11 13 9 6 6 8 10 16 10 8 4 9 8 13 4
22 27 29 27 23 26 24 25 26 19 18 23 22 21 20 15 14 13 11 10 10 10 8 6 4 5 4 5 3 4 5 4 7 9 13 5 8 3 13 13 7 7 8 6 6 3 5
24 26 30 29 27 23 23 24 27 19 19 22 22 22 19 16 15 12 13 11 12 12 10 7 7 7 7 5 4 3 1 4 1 9 11 8 3 5 10 10 13 9 7 8 9 8 3
27 31 30 29 28 29 27 29 22 20 20 23 22 21 18 19 15 12 13 13 13 12 12 10 9 8 7 6 5 3 3 3 6 8 7 4 5 6 14 12 10 10 11 16 3 5 7
28 28 28 31 32 28 22 25 24 24 23 23 22 22 22 16 14 15 15 14 13 13 12 9 8 9 8 6 5 7 5 5 6 7 4 6 3 5 5 4 8 10 15 19 11 11 11
32 31 27 30 34 29 27 26 24 24 25 24 23 15 19 19 18 16 15 16 16 14 13 12 10 10 9 8 8 6 8 6 7 9 8 7 7 9 11 15 20 22 23 14 10 9 9
31 27 33 32 32 28 27 27 27 23 26 25 23 19 19 16 15 17 16 14 14 14 14 12 11 12 11 8 9 12 10 9 9 9 8 7 8 10 12 17 23 22 14 12 13 15 15
26 33 32 32 32 31 28 28 28 24 24 26 23 19 21 22 19 18 17 17 16 16 14 14 14 11 12 11 12 8 10 10 10 9 8 8 7 9 12 11 12 18 17 12 13 16 18
28 29 31 35 32 34 31 29 31 24 25 27 25 19 22 23 19 18 19 18 15 15 15 15 13 13 13 13 12 11 11 10 10 10 9 8 5 6 4 7 13 15 6 7 11 11 10
30 30 30 34 34 33 33 30 27 27 27 28 24 17 22 25 21 19 19 17 17 17 17 15 15 14 13 13 13 12 12 12 12 12 11 8 6 5 4 5 2 6 7 8 11 11 9
39 32 29 33 37 39 33 29 27 28 31 27 19 18 21 26 22 20 19 20 19 18 18 18 16 15 14 14 13 10 12 12 15 16 14 11 7 4 4 5 16 19 15 7 11 12 9
35 38 32 32 36 36 29 26 25 28 30 22 16 19 21 22 23 21 20 20 20 20 19 20 18 17 17 15 13 8 8 7 7 7 18 15 11 9 8 4 6 5 9 10 11 12 6
25 28 34 32 33 31 26 29 28 29 27 17 18 19 21 22 23 22 19 19 21 22 21 20 20 20 19 19 17 12 12 11 8 9 11 18 14 18 15 9 10 15 13 12 5 8 11
28 22 28 34 32 29 29 30 31 27 23 20 19 19 19 22 22 21 17 21 21 22 21 19 18 23 22 21 15 14 13 15 14 15 12 13 9 10 12 10 11 9 12 15 13 15 15
23 21 28 28 30 30 34 33 29 25 23 14 18 21 18 21 18 14 18 21 22 21 21 21 23 17 13 14 15 12 13 12 17 10 21 16 19 8 14 8 14 17 15 17 18 18 20
Wind_Direction
351 357 4 16 17 13 13 11 4 356 350 346 347 348 350 345 347 341 340 340 337 333 329 328 328 318 312 294 286 299 300 296 295 289 281 279 273 269 264 259 256 252 261 261 267 277 279
346 347 358 8 15 11 11 6 1 357 352 348 345 347 349 344 345 343 341 339 337 336 334 333 335 327 320 297 305 310 328 337 337 338 330 306 287 273 265 262 263 261 259 266 272 272 272
339 338 351 354 355 7 3 2 359 2 356 351 346 344 344 344 344 343 340 339 337 337 335 340 339 326 321 335 338 334 15 27 15 357 345 331 306 279 265 268 259 263 276 267 272 274 272
326 332 337 343 346 349 357 1 356 354 358 352 348 344 344 344 341 342 341 338 338 335 336 344 338 337 0 348 8 34 1 348 352 334 321 312 287 256 264 266 265 285 281 271 272 258 261
307 317 324 333 337 335 342 349 352 350 349 348 348 346 342 341 340 339 341 339 338 333 336 348 345 338 8 19 15 359 360 352 356 340 327 316 311 284 273 283 281 278 294 299 300 304 294
290 298 307 314 323 323 329 340 346 348 346 345 347 345 343 338 340 337 342 338 338 338 337 345 354 27 23 26 352 10 4 8 9 5 343 319 303 294 306 315 331 322 322 315 314 313 309
289 289 296 300 304 310 317 329 344 345 345 344 343 343 342 339 338 338 339 334 330 341 338 333 2 43 3 5 7 5 10 20 18 15 0 7 339 359 357 354 345 323 318 313 312 294 308
283 283 283 285 291 302 311 325 337 343 339 337 336 337 338 338 336 337 333 334 332 312 311 345 23 8 2 5 356 1 10 10 14 26 27 7 29 15 354 337 331 325 321 320 313 315 309
280 278 277 280 284 294 306 317 326 338 334 334 331 328 333 335 334 334 335 331 327 323 280 269 18 352 3 356 11 9 9 12 17 20 18 20 30 359 330 321 317 318 319 315 308 313 307
277 279 275 276 281 288 298 309 319 335 335 333 328 327 329 331 331 329 331 328 325 313 240 251 340 347 356 358 1 8 6 13 24 31 28 22 9 338 342 329 323 314 306 297 298 305 296
270 276 273 278 276 279 293 308 317 330 337 334 330 328 327 329 329 328 331 329 326 314 30 266 335 342 356 359 3 5 12 14 27 39 20 38 13 15 353 344 330 317 311 308 304 292 288
272 271 267 270 265 269 285 300 311 322 328 329 328 326 324 326 324 324 324 324 317 293 218 252 298 325 340 350 6 14 4 10 34 35 20 59 7 355 339 336 322 325 319 312 300 282 260
271 269 264 261 260 271 280 294 305 308 317 325 323 323 321 322 317 317 320 321 288 213 230 231 294 318 328 352 358 0 7 16 28 15 22 21 11 352 332 338 334 335 349 345 344 330 246
264 266 259 255 258 266 274 285 301 293 312 318 316 318 316 316 308 310 308 303 247 229 237 255 289 303 324 2 348 357 1 25 26 26 56 8 348 345 340 344 334 359 343 288 281 274 284
262 265 261 250 253 262 273 280 289 287 309 316 313 312 311 308 304 303 297 269 254 249 243 255 281 287 284 336 327 342 8 24 13 17 27 353 303 353 333 340 346 336 356 311 269 277 280
276 265 260 252 258 271 266 277 284 285 304 310 313 309 310 300 301 296 285 265 256 248 254 254 245 245 256 301 318 338 34 12 360 358 350 313 296 324 336 334 329 333 341 333 302 287 283
264 259 258 259 262 263 270 267 284 285 300 308 309 308 306 295 292 283 269 265 263 248 241 244 241 245 257 277 287 309 188 314 320 331 335 330 287 300 323 324 317 324 324 345 300 261 278
260 263 258 263 267 268 267 278 275 285 296 306 304 303 300 293 280 273 262 265 250 238 236 242 252 247 248 265 273 247 245 250 294 321 332 314 287 292 306 302 295 302 308 332 297 282 279
273 263 260 266 276 285 264 274 281 281 294 304 299 298 294 277 267 271 260 260 246 241 238 243 242 241 246 248 256 228 244 263 290 307 289 301 270 302 302 277 284 285 301 311 297 275 252
267 271 261 266 274 282 270 277 274 273 286 298 293 290 290 277 271 258 266 255 242 239 240 246 250 245 244 243 245 247 245 260 286 291 282 279 250 246 234 278 285 292 298 291 283 255 262
265 273 266 273 280 283 275 275 264 267 280 297 293 288 278 269 268 263 256 253 243 241 239 242 248 242 242 240 237 244 245 250 273 262 255 260 262 267 273 274 282 287 286 277 277 285 271
262 273 277 275 274 282 278 277 267 269 280 289 284 284 276 270 267 261 253 252 248 246 246 247 246 241 242 244 244 261 248 248 254 243 240 244 260 278 283 269 274 284 281 265 280 294 296
264 272 273 275 279 284 282 283 278 270 275 284 284 274 271 268 267 256 252 252 255 246 248 251 243 241 242 242 244 246 248 244 243 238 235 244 268 281 237 263 294 288 235 266 296 292 302
254 263 269 271 275 280 283 285 281 268 272 285 284 266 262 265 262 258 253 252 248 247 248 250 243 242 243 238 241 243 247 240 238 229 229 243 264 252 247 284 349 226 268 276 292 275 296
245 256 271 273 270 274 285 284 276 269 275 287 264 256 260 262 266 259 256 250 247 249 245 245 243 240 240 234 235 241 241 246 244 230 224 234 249 239 224 214 277 264 253 267 299 293 281
253 257 267 278 267 279 278 280 275 276 282 270 251 250 255 259 267 263 259 250 247 245 242 243 238 237 237 233 228 231 221 213 212 222 221 224 234 223 210 210 227 251 243 282 305 279 264
250 254 261 267 269 277 283 278 275 285 275 251 242 248 246 260 262 263 258 254 251 244 242 245 243 238 238 237 234 239 235 219 218 213 206 216 230 230 228 232 261 258 258 264 234 284 288
250 252 269 267 271 268 287 278 279 277 267 243 248 238 251 257 262 260 258 255 252 249 250 254 236 241 239 232 234 238 236 226 233 228 225 226 214 208 208 213 263 220 240 242 278 282 279
258 263 263 266 267 268 281 276 276 272 248 240 233 247 249 254 255 253 257 250 248 250 246 250 248 253 230 227 232 230 235 236 234 239 236 227 224 226 220 242 261 280 268 264 266 268 271